Location: Observatory
(52.1446°N, 0.4624°W)
Time: 01:47:25
(UTC+01:00)

ISS - Pass Details

Date: 24 April 2024
Orbit: 409 x 414 km, 51.6° (Epoch: 23 May)

Event Time Altitude Azimuth Distance (km) Brightness Sun altitude
Exits shadow 04:29:10 - 185° (S) 1,574 -1.3 -10.8°
Reaches altitude 10° 04:29:32 10° 181° (S) 1,473 -1.4 -10.8°
Maximum altitude 04:31:35 16° 142° (SE) 1,182 -1.5 -10.5°
Drops below altitude 10° 04:33:39 10° 103° (ESE) 1,477 -0.4 -10.3°
Sets 04:36:19 0° 81° (E) 2,341 1.3 -10.0°
